Home > Weather > Schwäbisch Hall > Past weeks

Flag for Germany Past Weather in Schwäbisch Hall, Baden-Württemberg, Germany — Yesterday and Last 2 Weeks

Now
72 °F

Broken clouds.


Feels Like: 76 °F
Forecast: 61 / 76 °F
Wind: 8 mph from West

Location: Niederstetten

Current Time: Jul 28, 2016 at 8:33:17 PM

Latest Report: Jul 28, 2016 at 7:20 PM


Visibility: N/A

Pressure: 30.01 "Hg

Humidity: 57%

Dew Point: 55 °F

Location of Schwäbisch HallLocation

Past Weather in Schwäbisch Hall — Graph

°F

Schwäbisch Hall Temperature Yesterday

Maximum temperature yesterday: 75 °F (at 2:20 PM)
Minimum temperature yesterday: 61 °F (at 1:20 AM)
Average temperature yesterday: 68 °F

High & Low Weather Summary for the Past Weeks

 TemperatureHumidityPressure
High88 °F (Jul 20, 3:20 PM)100% (Jul 22, 12:20 AM)30.33 "Hg (Jul 22, 12:20 AM)
Low48 °F (Jul 15, 6:20 AM)29% (Jul 20, 4:20 PM)29.95 "Hg (Jul 21, 3:20 AM)
Average67 °F71%30.12 "Hg
* Reported Jul 13 9:20 PM — Jul 28 6:20 PM, Schwäbisch Hall, Weather by CustomWeather, © 2016

Note: Actual official high and low records may vary slightly from our data, if they occured in-between our weather recording intervals... More about our weather records

Advertising

Schwäbisch Hall Weather History for the Previous 24 Hours

Scroll right to see more
 ConditionsComfort  
Time TempWeatherWind HumidityBarometerVisibility
6:20 PM
Thu, Jul 28
73 °FPartly sunny.9 mph50%30.01 "HgN/A
5:20 PM73 °FBroken clouds.9 mph50%30.04 "HgN/A
4:20 PM73 °FBroken clouds.9 mph53%30.04 "HgN/A
3:20 PM73 °FBroken clouds.10 mph53%30.07 "HgN/A
2:20 PM72 °FBroken clouds.6 mph57%30.07 "HgN/A
1:20 PM72 °FBroken clouds.10 mph57%30.07 "HgN/A
12:20 PM72 °FBroken clouds.6 mph57%30.07 "HgN/A
11:20 AM70 °FBroken clouds.10 mph60%30.09 "HgN/A
10:20 AM68 °FBroken clouds.8 mph64%30.09 "HgN/A
9:20 AM68 °FBroken clouds.6 mph64%30.07 "HgN/A
8:20 AM64 °FBroken clouds.6 mph73%30.07 "HgN/A
7:20 AM63 °FPartly sunny.3 mph83%30.07 "HgN/A
6:20 AM61 °FPassing clouds.3 mph83%30.07 "HgN/A
5:20 AM61 °FPassing clouds.3 mph83%30.07 "HgN/A
4:20 AM61 °FPartly cloudy.3 mph83%30.07 "HgN/A
3:20 AM59 °FPassing clouds.2 mph88%30.09 "HgN/A
2:20 AM59 °FPassing clouds.2 mph88%30.09 "HgN/A
1:20 AM61 °FPassing clouds.1 mph83%30.09 "HgN/A
12:20 AM61 °FPassing clouds.2 mph83%30.09 "HgN/A
11:20 PM
Wed, Jul 27
63 °FPassing clouds.1 mph77%30.09 "HgN/A
10:20 PM66 °FPassing clouds.2 mph68%30.09 "HgN/A
9:20 PM68 °FPassing clouds.2 mph64%30.07 "HgN/A
8:20 PM72 °FPartly sunny.7 mph57%30.07 "HgN/A
Weather by CustomWeather, © 2016

See weather overviewHow to use our weather pages